Lid_Strength_Index
4 4 4 4 5 4 4 4 5 5 5 5 4 4 4 4 4 4 4 4 4 4 4 4 3 2 6 11 9 6 -3 -2 4 6 9 10 12 12 11 13 12 13 11 10 11 11 12
4 4 5 5 5 5 5 4 4 4 4 4 4 4 4 4 4 4 4 4 4 4 4 3 2 2 7 13 8 5 2 3 4 7 8 9 10 10 12 12 12 10 10 10 11 11 12
5 4 5 5 4 5 5 4 4 4 4 4 4 4 4 4 4 4 4 4 4 4 4 3 2 3 7 10 6 4 4 3 3 5 7 7 8 9 10 12 11 10 11 10 10 10 10
4 4 5 5 4 4 4 4 4 4 4 4 4 4 4 4 4 4 4 4 4 4 3 3 2 5 10 7 5 5 6 6 5 5 5 5 7 9 11 10 10 12 13 14 11 10 9
3 3 3 4 4 4 4 4 4 4 4 4 4 4 4 4 4 4 5 5 4 3 2 2 6 7 8 3 4 5 6 7 7 6 6 4 7 10 10 13 14 14 15 14 12 10 10
3 3 3 3 3 4 4 4 4 4 4 4 4 4 5 4 4 5 5 5 4 3 2 3 4 9 7 6 4 6 7 7 7 7 8 8 10 11 12 14 17 15 14 14 14 11 10
2 3 3 3 3 4 4 4 4 4 4 4 4 4 5 5 5 5 6 8 10 10 7 9 6 7 5 4 4 6 6 7 7 9 11 10 12 13 12 12 11 12 13 13 11 10 11
2 3 3 3 3 4 4 4 4 4 4 4 4 4 4 5 5 5 8 8 9 9 11 8 8 6 4 5 7 6 6 9 10 12 10 11 13 10 9 9 11 11 12 12 11 10 11
2 3 3 3 2 3 4 4 4 4 4 4 4 4 4 5 5 8 9 8 7 9 12 9 8 8 8 7 8 7 6 8 10 12 12 13 10 8 9 9 10 12 13 12 12 10 10
3 3 3 3 3 4 4 4 4 4 4 4 4 4 4 5 8 10 9 7 8 8 13 9 8 7 7 8 8 6 5 7 10 11 11 12 9 9 10 10 10 13 10 10 10 12 14
3 3 3 3 3 4 4 5 5 4 4 4 4 4 5 5 10 11 8 8 8 7 16 7 8 6 8 8 7 7 6 7 11 10 11 11 11 11 11 10 9 11 9 10 10 13 15
3 3 3 3 4 4 5 5 4 4 4 4 4 4 5 8 11 9 8 9 8 12 15 8 8 9 10 8 8 8 7 7 7 9 10 10 9 9 9 9 9 8 9 11 13 14 16
3 3 3 4 4 4 4 5 5 4 4 4 4 5 6 8 10 9 9 8 14 15 8 9 9 9 10 9 9 9 10 11 12 14 13 11 11 9 9 11 10 11 13 16 16 17 16
3 3 3 4 4 4 5 5 5 5 5 5 5 6 8 8 9 9 9 11 16 10 10 7 8 10 10 9 9 9 11 12 11 11 13 14 14 10 8 11 12 12 13 16 19 18 16
3 3 3 3 4 4 5 5 5 5 5 5 7 12 11 8 8 9 10 15 13 10 8 9 9 11 11 9 10 10 11 11 10 10 13 14 12 8 8 9 10 12 14 13 15 16 16
3 3 3 4 4 4 5 5 5 4 5 6 11 12 9 7 7 9 12 13 11 8 7 8 12 10 13 11 11 12 10 8 8 8 10 11 13 10 8 9 9 10 11 15 16 18 18
3 3 4 4 4 4 4 5 4 4 5 6 12 10 7 6 7 10 15 14 10 7 7 9 10 11 11 11 11 11 10 8 8 7 8 10 12 11 10 11 11 11 13 14 15 16 18
3 3 3 3 3 4 4 4 4 4 6 9 11 11 6 7 13 13 14 11 9 8 7 8 9 10 10 10 11 11 10 9 7 7 10 11 12 14 12 9 9 10 12 13 15 16 16
3 3 3 3 3 3 4 4 4 5 7 12 12 11 6 7 14 14 11 8 7 8 8 8 9 9 9 11 13 10 9 7 7 8 11 11 13 16 15 12 9 11 11 12 13 14 15
2 2 3 3 3 3 4 4 4 5 7 11 12 11 9 10 11 12 12 10 9 7 8 8 9 9 11 12 11 12 9 7 6 7 6 7 12 14 15 14 11 12 10 10 13 17 15
2 2 2 3 3 3 3 4 4 5 6 11 12 11 10 12 11 12 12 10 10 9 8 9 10 10 12 14 12 11 9 9 7 6 8 11 14 12 11 10 10 10 10 10 11 12 14
2 2 2 3 3 3 3 4 4 5 7 12 12 12 11 10 10 11 11 12 10 8 9 9 11 9 10 11 11 12 10 11 11 9 11 10 13 12 13 10 10 11 10 10 11 10 11
2 2 2 2 3 3 3 4 4 5 8 13 11 10 11 11 12 11 11 10 9 9 8 8 8 9 9 8 8 9 8 9 10 11 11 11 12 13 15 11 12 14 11 11 11 10 11
3 2 2 2 3 3 3 3 4 5 8 11 11 11 12 13 12 11 9 9 9 9 9 7 7 9 7 6 8 9 10 9 9 10 11 13 13 14 15 14 18 13 10 9 10 10 9
4 3 2 2 2 3 3 3 3 4 6 11 11 11 12 14 12 10 9 9 9 9 10 8 7 7 7 8 11 13 13 12 11 10 11 12 13 15 17 17 14 11 10 10 11 12 9
4 4 3 2 2 3 3 3 3 4 5 10 11 11 11 12 12 9 10 10 12 12 10 8 7 8 9 12 13 16 16 13 14 13 11 11 12 14 15 17 18 12 8 6 8 15 8
4 4 4 3 2 2 3 3 3 4 5 10 11 10 10 12 10 10 12 12 10 12 12 10 9 10 10 13 14 15 15 12 16 15 14 14 14 15 16 16 14 10 7 6 14 13 7
4 4 4 4 2 2 3 3 3 4 5 10 11 8 9 11 11 9 8 11 11 11 13 11 11 10 12 14 15 15 15 14 15 14 14 14 15 15 15 17 17 8 8 12 9 7 7
4 4 4 4 3 3 3 3 4 4 5 7 9 7 7 10 10 9 9 9 9 9 10 11 11 12 11 13 14 14 14 14 15 16 12 15 13 15 13 13 10 9 9 7 7 8 8